[[{"header":{"parameterUnit":"m.s-1","parameterCategory":1,"la1":30.2991,"la2":30.254,"lo1":-89.0895,"lo2":-89.0444,"dy":0.0017,"dx":0.0017,"nx":28,"ny":28,"refTime":"2025-04-19T09:00:00:Z","depth":0,"parameterNumber":2,"parameterNumberName":"U-component_of_WINDS"},"data":[0,0,0,0,0,0,0,0,0,0,0,0,0,0,0,0,0,0,0,0,0,0,0,0,0,0,0,0,0,0,0,0,0,0,0,0,0,0,0,0,0,0,0,0,0,0,0,0,0,0,0,0,0,0,0,0,0,0,-5.3609,-5.361,0,-5.3682,-5.3683,-5.3683,-5.3629,-5.3627,-5.3625,-5.3622,-5.3693,-5.3697,-5.3701,0,0,0,0,0,0,0,0,0,0,0,0,0,-5.3422,-5.3425,-5.3609,-5.361,-5.3611,-5.3682,-5.3683,-5.3684,-5.363,-5.3627,-5.3624,-5.3621,-5.3692,-5.3696,-5.3701,0,0,0,0,0,0,0,0,0,0,0,0,0,-5.35,-5.3427,-5.3609,-5.3593,-5.3592,-5.3681,-5.3683,-5.3684,-5.363,-5.3627,-5.3623,-5.362,-5.369,-5.3696,-5.3702,-5.381,0,0,-5.3721,-5.3723,0,0,0,0,0,0,0,0,-5.3495,-5.3506,-5.3594,-5.3594,-5.3594,-5.3643,-5.3642,-5.3726,-5.3631,-5.3616,-5.3622,-5.3618,-5.3679,-5.3686,-5.3707,-5.3813,-5.3816,-5.3721,-5.3725,-5.3727,-5.3729,0,0,0,0,0,0,0,-5.349,-5.3503,-5.3638,-5.3596,-5.3595,-5.3581,-5.3588,-5.3658,-5.3666,-5.3617,-5.3613,-5.3623,-5.3678,-5.3701,-5.3708,-5.3817,-5.3721,-5.3726,-5.373,-5.3733,-5.4015,-5.4019,0,0,0,0,0,0,-5.3486,-5.3499,-5.3636,-5.364,-5.3535,-5.3587,-5.3595,-5.3631,-5.3665,-5.3667,-5.3625,-5.362,-5.3692,-5.3701,-5.371,-5.3838,-5.3727,-5.3733,-5.3737,-5.4012,-5.4016,-5.402,0,0,0,0,0,0,-5.3483,-5.3499,-5.3633,-5.3569,-5.3584,-5.3594,-5.3634,-5.3634,-5.3657,-5.3672,-5.3673,-5.3648,-5.369,-5.3702,-5.3786,-5.384,-5.3736,-5.3741,-5.4007,-5.4013,-5.4018,-5.4095,0,0,0,0,0,0,-5.3478,-5.3498,-5.354,-5.357,-5.3588,-5.3708,-5.3638,-5.3638,-5.3668,-5.3661,-5.3693,-5.3695,-5.3688,-5.3777,-5.3792,-5.3846,-5.3746,-5.4002,-5.401,-5.4017,-5.4087,-5.4102,-5.4115,0,0,0,0,0,-5.3471,-5.3558,-5.3542,-5.3559,-5.3641,-5.3711,-5.3721,-5.3713,-5.3673,-5.3714,-5.3724,-5.3694,-5.3832,-5.3786,-5.3802,-5.3859,-5.3999,-5.4008,-5.4016,-5.4081,-5.4099,-5.4115,0,0,0,0,0,0,-5.3532,-5.3561,-5.3544,-5.3644,-5.3676,-5.3702,-5.3753,-5.3733,-5.3775,-5.3767,-5.3754,-5.3762,-5.3849,-5.3863,-5.3811,-5.3965,-5.3909,-5.3921,-5.3953,-5.397,-5.3984,-5.3977,-5.3751,0,0,0,0,0,-5.3558,-5.3613,-5.3636,-5.3721,-5.3738,-5.3744,-5.3774,-5.3765,-5.3797,-5.3809,-5.3825,-5.3856,-5.3906,-5.394,-5.3987,-5.409,-5.4095,-5.4138,-5.4152,-5.4163,-5.4173,-5.4227,-5.4245,-5.4049,-5.4049,-5.4049,0,0,-5.361,-5.3633,-5.3668,-5.3734,-5.3757,-5.3814,-5.3755,-5.3817,-5.3859,-5.3818,-5.3898,-5.3911,-5.3945,-5.4039,-5.4081,-5.4053,-5.4229,-5.4174,-5.4183,-5.4186,-5.4238,-5.4256,-5.4273,-5.4055,-5.4054,-5.4053,0,0,-5.3733,-5.3758,-5.3831,-5.3856,-5.3893,-5.3896,-5.3914,-5.3944,-5.3951,-5.4032,-5.4002,-5.4052,-5.4139,-5.4164,-5.4188,-5.4324,-5.4297,-5.434,-5.4411,-5.4464,-5.4479,-5.4493,-5.4539,-5.4556,-5.435,-5.435,-5.435,0,-5.3793,-5.3878,-5.3871,-5.3936,-5.3965,-5.3933,-5.4006,-5.4031,-5.4081,-5.4101,-5.407,-5.4179,-5.42,-5.4298,-5.4331,-5.4353,-5.4371,-5.4334,-5.4478,-5.4492,-5.4504,-5.4548,-5.4565,-5.4355,-5.4354,-5.4354,-5.4353,0,-5.3949,-5.4008,-5.4063,-5.4113,-5.4149,-5.4218,-5.422,-5.4257,-5.4246,-5.4252,-5.4334,-5.4359,-5.441,-5.4433,-5.4423,-5.4531,-5.4512,-5.448,-5.4422,-5.4528,-5.4568,-5.4585,-5.4362,-5.436,-5.4358,-5.4357,0,0,-5.4109,-5.4156,-5.4176,-5.4198,-5.4238,-5.4283,-5.4351,-5.4402,-5.4433,-5.447,-5.4525,-5.4601,-5.4571,-5.4599,-5.4591,-5.4638,-5.4742,-5.46,-5.4601,-5.4623,-5.486,-5.4881,-5.4901,-5.4726,-5.4729,-5.4732,-5.4856,0,-5.4233,-5.4351,-5.4347,-5.4456,-5.4511,-5.4482,-5.4541,-5.4571,-5.458,-5.4626,-5.4635,-5.4688,-5.4647,-5.4663,-5.4709,-5.4719,-5.4788,-5.4711,-5.4774,-5.4777,-5.4763,-5.4922,-5.4945,-5.5061,-5.4872,-5.4875,-5.4877,0,-5.4392,-5.4435,-5.455,-5.4581,-5.4604,-5.4657,-5.4703,-5.4749,-5.4783,-5.4785,-5.4817,-5.4802,-5.487,-5.4813,-5.4905,-5.4852,-5.4879,-5.4888,-5.4892,-5.4895,-5.4831,-5.4927,-5.5098,-5.5115,-5.4902,-5.49,-5.4898,0,-5.4494,-5.4581,-5.4661,-5.4681,-5.4721,-5.4758,-5.4776,-5.4806,-5.4838,-5.4879,-5.4898,-5.4947,-5.4972,-5.501,-5.5008,-5.4967,-5.51,-5.5044,-5.5102,-5.5102,-5.5128,-5.5126,-5.5304,-5.5151,-5.5151,-5.5151,-5.515,0,-5.4631,-5.4702,-5.4708,-5.4756,-5.4835,-5.483,-5.4908,-5.4922,-5.4949,-5.4999,-5.4979,-5.5026,-5.5022,-5.507,-5.5069,-5.5144,-5.5157,-5.5159,-5.5158,-5.516,-5.5159,-5.5174,-5.5165,-5.5155,-5.5154,-5.5153,-5.5153,0,-5.4757,-5.4764,-5.4849,-5.488,-5.489,-5.4946,-5.4972,-5.5018,-5.5026,-5.5089,-5.5104,-5.5116,-5.5171,-5.5174,-5.5237,-5.5237,-5.5327,-5.5318,-5.5316,-5.5313,-5.537,-5.5364,-5.5561,-5.5586,-5.542,-5.5422,-5.5423,0,-5.4842,-5.4896,-5.4933,-5.4966,-5.4986,-5.504,-5.5072,-5.507,-5.5104,-5.5147,-5.5187,-5.5241,-5.5283,-5.5373,-5.5386,-5.5434,-5.5424,-5.549,-5.5431,-5.5431,-5.5422,-5.5417,-5.5422,-5.55,-5.5502,-5.5504,-5.5505,0,-5.4991,-5.4992,-5.504,-5.5089,-5.5128,-5.5167,-5.5202,-5.523,-5.5232,-5.5272,-5.5328,-5.5362,-5.5427,-5.548,-5.5527,-5.5545,-5.5525,-5.5524,-5.554,-5.554,-5.5536,-5.5536,-5.5344,-5.5519,-5.5517,-5.5516,-5.5516,-5.5515,-5.5097,-5.5143,-5.5177,-5.5231,-5.5258,-5.5292,-5.5336,-5.5351,-5.5398,-5.5452,-5.5448,-5.5511,-5.5543,-5.5605,-5.5626,-5.5674,-5.5651,-5.5675,-5.568,-5.5685,-5.569,-5.5531,-5.5683,-5.5683,-5.5683,-5.5682,-5.5682,0,-5.5243,-5.5263,-5.5313,-5.5364,-5.5406,-5.5387,-5.5426,-5.5462,-5.5517,-5.555,-5.5593,-5.5658,-5.5709,-5.5728,-5.5778,-5.5813,-5.5805,-5.5825,-5.5821,-5.5825,-5.5709,-5.5689,-5.5831,-5.5831,-5.5831,-5.5831,-5.5831,-5.5831,-5.5323,-5.54,-5.5406,-5.5496,-5.5516,-5.5577,-5.5601,-5.5632,-5.5658,-5.5732,-5.5775,-5.5788,-5.5814,-5.5866,-5.5912,-5.5916,-5.5934,-5.5958,-5.5958,-5.5848,-5.5833,-5.5819,-5.58,-5.5963,-5.5963,-5.607,-5.6071,-5.6072]},{"header":{"parameterUnit":"m.s-1","parameterCategory":1,"la1":30.2991,"la2":30.254,"lo1":-89.0895,"lo2":-89.0444,"dy":0.0017,"dx":0.0017,"nx":28,"ny":28,"refTime":"2025-04-19T09:00:00:Z","depth":0,"parameterNumber":3,"parameterNumberName":"V-component_of_WINDS"},"data":[0,0,0,0,0,0,0,0,0,0,0,0,0,0,0,0,0,0,0,0,0,0,0,0,0,0,0,0,0,0,0,0,0,0,0,0,0,0,0,0,0,0,0,0,0,0,0,0,0,0,0,0,0,0,0,0,0,0,3.6816,3.6817,0,3.6871,3.6872,3.6872,3.6851,3.685,3.6848,3.6847,3.69,3.6903,3.6906,0,0,0,0,0,0,0,0,0,0,0,0,0,3.669,3.6693,3.6816,3.6817,3.6817,3.6871,3.6872,3.6873,3.6851,3.685,3.6848,3.6847,3.69,3.6903,3.6906,0,0,0,0,0,0,0,0,0,0,0,0,0,3.6745,3.6694,3.6816,3.6813,3.6814,3.6871,3.6872,3.6873,3.6852,3.685,3.6848,3.6846,3.6899,3.6902,3.6906,3.6968,0,0,3.6918,3.692,0,0,0,0,0,0,0,0,3.6742,3.675,3.6813,3.6814,3.6814,3.6852,3.6847,3.6905,3.6852,3.6837,3.6847,3.6845,3.6886,3.6891,3.6905,3.6971,3.6973,3.6918,3.6921,3.6922,3.6924,0,0,0,0,0,0,0,3.6738,3.6747,3.6838,3.6814,3.6815,3.6809,3.6814,3.6858,3.6871,3.6838,3.6837,3.6844,3.6886,3.6901,3.6906,3.6974,3.6918,3.6922,3.6924,3.6926,3.7095,3.7097,0,0,0,0,0,0,3.6735,3.6744,3.6836,3.6839,3.6773,3.6813,3.6819,3.6842,3.6871,3.6873,3.6845,3.6843,3.6896,3.6902,3.6908,3.6984,3.6922,3.6926,3.6928,3.7093,3.7096,3.7098,0,0,0,0,0,0,3.6732,3.6743,3.6834,3.6791,3.6803,3.6817,3.6843,3.6844,3.686,3.6876,3.6878,3.6859,3.6894,3.6902,3.6954,3.6985,3.6928,3.6931,3.7091,3.7094,3.7097,3.7135,0,0,0,0,0,0,3.6728,3.6742,3.6766,3.6792,3.6805,3.688,3.6845,3.6846,3.6867,3.6864,3.689,3.6892,3.6893,3.6948,3.6958,3.6989,3.6934,3.7088,3.7092,3.7096,3.7131,3.7139,3.7146,0,0,0,0,0,3.6724,3.6773,3.6767,3.6779,3.6835,3.6881,3.6889,3.689,3.6869,3.6893,3.6905,3.6891,3.698,3.6954,3.6964,3.6998,3.7086,3.7091,3.7096,3.7128,3.7138,3.7146,0,0,0,0,0,0,3.6749,3.6777,3.677,3.683,3.6854,3.6878,3.6908,3.69,3.6929,3.6925,3.6925,3.6931,3.6985,3.6996,3.6966,3.706,3.703,3.7037,3.7051,3.706,3.7068,3.7063,3.6938,0,0,0,0,0,3.6762,3.6797,3.6819,3.687,3.6882,3.6893,3.6913,3.6913,3.6937,3.6947,3.6961,3.6984,3.7018,3.704,3.7071,3.7133,3.7139,3.7161,3.7169,3.7175,3.7181,3.7216,3.7226,3.7114,3.7114,3.7114,0,0,3.6787,3.6807,3.6829,3.6875,3.6894,3.6931,3.6902,3.6941,3.6969,3.6952,3.7002,3.7014,3.704,3.7098,3.7124,3.7109,3.7213,3.7181,3.7186,3.7188,3.7222,3.7232,3.7242,3.7118,3.7117,3.7116,0,0,3.6853,3.6872,3.6917,3.6937,3.6966,3.6973,3.6984,3.701,3.7018,3.7069,3.7057,3.709,3.7147,3.7166,3.7184,3.726,3.7249,3.7271,3.731,3.7344,3.7353,3.736,3.7388,3.7398,3.7277,3.7277,3.7277,0,3.6882,3.6938,3.694,3.6982,3.7003,3.6992,3.7037,3.7056,3.7093,3.7107,3.7091,3.7164,3.718,3.7243,3.7262,3.7276,3.7289,3.7267,3.7351,3.7359,3.7366,3.7393,3.7404,3.7279,3.7279,3.7279,3.7278,0,3.6971,3.701,3.7043,3.7082,3.7106,3.7149,3.7158,3.7183,3.7181,3.719,3.7243,3.7263,3.7299,3.7314,3.7311,3.7377,3.7367,3.7351,3.732,3.738,3.7405,3.7415,3.7283,3.7282,3.7281,3.7281,0,0,3.7053,3.7094,3.7106,3.7124,3.7157,3.7187,3.723,3.7267,3.7288,3.7315,3.7351,3.7401,3.7387,3.7407,3.7407,3.7437,3.7498,3.7417,3.7418,3.7432,3.7572,3.7584,3.7596,3.7491,3.7493,3.7495,3.757,0,3.7122,3.7199,3.7204,3.7273,3.731,3.7301,3.7339,3.7363,3.7373,3.7405,3.7416,3.7452,3.743,3.7443,3.7472,3.7484,3.7526,3.7479,3.7525,3.7526,3.7518,3.7609,3.7621,3.7691,3.758,3.7582,3.7583,0,3.7212,3.7244,3.7318,3.7347,3.7363,3.7396,3.7432,3.7463,3.749,3.7495,3.7519,3.7516,3.756,3.7529,3.759,3.7558,3.7577,3.7586,3.7589,3.7593,3.7558,3.7616,3.7714,3.7724,3.7598,3.7597,3.7596,0,3.7266,3.7326,3.7379,3.7395,3.743,3.7454,3.7469,3.7495,3.7518,3.7548,3.7563,3.7598,3.7617,3.7644,3.765,3.7627,3.7712,3.7681,3.7718,3.7718,3.7735,3.7734,3.7838,3.7748,3.7748,3.7748,3.7747,0,3.7342,3.7388,3.7404,3.7436,3.7487,3.7492,3.7542,3.7556,3.7579,3.7614,3.7608,3.7641,3.7647,3.7681,3.7685,3.7736,3.7744,3.775,3.7751,3.7751,3.775,3.7763,3.7758,3.775,3.775,3.7749,3.7749,0,3.741,3.7422,3.7479,3.7508,3.7517,3.7553,3.7578,3.7609,3.762,3.7664,3.7674,3.7691,3.773,3.774,3.7786,3.779,3.785,3.7846,3.7841,3.7841,3.7877,3.7874,3.7993,3.8009,3.7908,3.7909,3.791,0,3.7458,3.7493,3.7527,3.7551,3.7568,3.7606,3.763,3.7637,3.7661,3.7697,3.7723,3.7763,3.7795,3.7859,3.7874,3.7911,3.7907,3.7947,3.7912,3.7912,3.7909,3.7907,3.791,3.7953,3.7954,3.7955,3.7956,0,3.7542,3.7547,3.7582,3.762,3.765,3.7679,3.7708,3.7727,3.7738,3.7766,3.7808,3.7833,3.7882,3.7922,3.7958,3.7974,3.7967,3.7967,3.7977,3.7977,3.7973,3.7977,3.7859,3.7964,3.7963,3.7962,3.7962,3.7961,3.7602,3.7633,3.7663,3.7703,3.7726,3.7753,3.7784,3.78,3.7835,3.7876,3.7878,3.7924,3.7951,3.8,3.8018,3.8054,3.8041,3.8056,3.806,3.8064,3.8068,3.7968,3.806,3.806,3.806,3.806,3.806,0,3.7686,3.7706,3.7742,3.7784,3.7815,3.7808,3.7839,3.7866,3.7907,3.7934,3.7966,3.8015,3.8053,3.8073,3.8111,3.8136,3.8134,3.8146,3.8144,3.8148,3.8076,3.8063,3.8147,3.8147,3.8147,3.8147,3.8147,3.8147,3.7734,3.7788,3.7797,3.7862,3.788,3.7926,3.7945,3.797,3.7992,3.8047,3.808,3.8093,3.8118,3.8158,3.8194,3.8198,3.8213,3.8227,3.823,3.8162,3.8153,3.8144,3.8133,3.823,3.823,3.8299,3.83,3.83]}]]